"Pseudo-MPEC" for A11eZyT

Created 2024 Dec 14 17:31:01 UT using Find_Orb

Click here for an explanation of pseudo-MPECs

 
 Astrometry: 
     A11eZyT* C2024 11 30?%uu(JjV38uV*/-!Hs3%LJnY,5\c@(+;Xg@DSosAstrometrycy(M22
     A11eZyT  C2024 11 30JT*DA0JFX*,mdredacted;i0jc9O%K=EM;RB4oup@)!dKehKCLWjM22
     A11eZyT  C2024 12 016F!0nVi?shF4clicktCiLc'''lpRiB/ZY059t)I=v+HdYherekfdM22
     A11eZyT  C2024 12 01mfftGmA=E0:for.DMrY@lbj/dfng+'explanationXK*vJb9K/ZiM22
     A11eZyT  C2024 12 01.D]=i05H*\etE);npFu)qY%6]B)/Q=R`aiWPSFS](rXN!MvLsqUDM22

Station data:
(M22) ATLAS South Africa, Sutherland  (S32.380156 E20.810590)  South Africa.
   Observers L. Denneau, R. Siverd, J. Tonry, H. Weiland. Measurers L.
   Denneau, N. Erasmus, A. Fitzsimmons, A. Lawrence, J. Robinson, R. Siverd,
   J. Tonry, H. Weiland. 0.5-m reflector + CCD.

Orbital elements:  A11eZyT
   Perigee 2024 Nov 30.50083 +/- 0.00712 TT = 12:01:12 (JD 2460645.00083)
Epoch 2024 Dec  1.0 TT = JDT 2460645.5                           AutoNEOCP
M 152.23590301 +/- 1.5              (J2000 equator)
n 304.98061505 +/- 4.79             Peri.  296.11208 +/- 0.26
a 47179.7188 +/- 494                Node   350.39514 +/- 0.30
e   0.6431872 +/- 0.00553           Incl.    7.83320 +/- 0.024
P1699.748m/1.180d          H 31.77  G  0.15   U 13.8
q 16834.3261 +/- 434    Q 77525.1116 +/- 562
From 5 observations 2024 Nov. 30-Dec. 1 (81.4 min); mean residual 0".75
Residuals in arcseconds: 
241130 M22  .09-  .00     241201 M22  1.8+  .08+    241201 M22  .14+  .00     
241130 M22  .53-  .09-    241201 M22  1.4-  .00     

Ephemerides (geocentric):
Date (UTC) HH   RA             Dec           delta  r     elong  mag " sig PA
---- --------  ------------   ------------  ------ ------ -----  --- --------
2024 12 14 18  01 42 26.123   +04 27 23.89   30636 .98437 122.3 15.4 116d  84
2024 12 14 19  02 54 35.710   +06 12 58.24   38959 .98445 139.1 15.4  64d  85
2024 12 14 20  03 42 33.146   +07 03 12.96   46322 .98452 149.6 15.5  37d  87
2024 12 14 21  04 18 07.002   +07 28 40.88   52714 .98457 156.7 15.6  25d  88
2024 12 14 22  04 46 28.175   +07 41 20.77   58221 .98461 161.3 15.7  19d  89
2024 12 14 23  05 10 14.918   +07 46 36.01   62924 .98464 163.8 15.7 905'  89
2024 12 15 00  05 30 57.328   +07 47 08.62   66893 .98466 164.5 15.8 764'  90
2024 12 15 01  05 49 31.353   +07 44 26.17   70183 .98468 163.8 16.0 669'  91
2024 12 15 02  06 06 34.300   +07 39 18.25   72836 .98469 162.2 16.1 603'  91
2024 12 15 03  06 22 32.661   +07 32 13.31   74883 .98469 159.9 16.2 556'  92
2024 12 15 04  06 37 46.417   +07 23 26.95   76348 .98469 157.4 16.4 524'  92
2024 12 15 05  06 52 31.586   +07 13 06.28   77246 .98468 154.7 16.5 502'  93
2024 12 15 06  07 07 01.878   +07 01 12.05   77588 .98467 151.8 16.6 489'  93
2024 12 15 07  07 21 29.883   +06 47 39.59   77376 .98465 148.9 16.6 484'  94
2024 12 15 08  07 36 08.049   +06 32 18.92   76609 .98462 145.7 16.7 487'  94
2024 12 15 09  07 51 09.634   +06 14 54.03   75278 .98460 142.4 16.8 497'  95
2024 12 15 10  08 06 49.818   +05 55 01.31   73369 .98456 138.9 16.8 515'  95
2024 12 15 11  08 23 27.199   +05 32 06.74   70860 .98452 135.1 16.8 543'  96
2024 12 15 12  08 41 26.049   +05 05 21.01   67722 .98448 131.0 16.9 584'  96
2024 12 15 13  09 01 20.048   +04 33 31.10   63915 .98443 126.4 16.9 641'  96
2024 12 15 14  09 23 58.985   +03 54 44.94   59387 .98438 121.0 16.9 723'  97
2024 12 15 15  09 50 41.812   +03 06 02.35   54074 .98432 114.7 16.8 842'  97
2024 12 15 16  10 23 44.735   +02 02 15.72   47893 .98426 106.7 16.8  17d  98
2024 12 15 17  11 07 29.551   +00 34 02.51   40759 .98419  96.2 16.9  22d  98
2024 12 15 18  12 11 37.498   -01 36 39.41   32639 .98413  80.6 17.0  31d  98
2024 12 15 19  14 01 49.794   -04 57 36.04   23899 .98406  54.2 18??  49d  96
2024 12 15 20  17 42 50.389   -07 45 17.33   17215 .98404  15.7 24??  90d  89
2024 12 15 21  22 27 57.057   -01 53 47.42   19464 .98411  74.1 16.2 140d  83
2024 12 15 22  01 09 15.411   +03 27 54.43   27716 .98422 113.2 15.4 141d  83
2024 12 15 23  02 34 42.727   +05 46 05.20   36297 .98431 133.4 15.4  93d  85
2024 12 16 00  03 28 48.194   +06 49 39.10   43995 .98438 145.6 15.5  50d  86
2024 12 16 01  04 07 40.737   +07 21 28.00   50704 .98444 153.7 15.6  32d  87
2024 12 16 02  04 38 01.542   +07 37 35.43   56496 .98448 159.2 15.7  23d  88
2024 12 16 03  05 03 05.793   +07 44 56.51   61459 .98452 162.6 15.7  18d  89
2024 12 16 04  05 24 40.905   +07 46 52.66   65666 .98455 164.3 15.8 886'  90
2024 12 16 05  05 43 51.812   +07 45 10.42   69176 .98456 164.3 15.9 764'  91
2024 12 16 06  06 01 20.851   +07 40 49.38   72037 .98458 163.2 16.0 681'  91
2024 12 16 07  06 17 37.480   +07 34 23.75   74282 .98458 161.3 16.2 622'  92
2024 12 16 08  06 33 03.475   +07 26 12.77   75939 .98458 159.0 16.3 581'  92
2024 12 16 09  06 47 55.939   +07 16 26.06   77024 .98458 156.5 16.4 553'  93
2024 12 16 10  07 02 29.187   +07 05 06.33   77550 .98457 153.7 16.5 535'  93
2024 12 16 11  07 16 56.052   +06 52 10.69   77522 .98455 150.8 16.6 526'  94
2024 12 16 12  07 31 28.913   +06 37 31.00   76940 .98453 147.8 16.7 525'  94
2024 12 16 13  07 46 20.633   +06 20 53.44   75798 .98450 144.6 16.7 532'  95
2024 12 16 14  08 01 45.598   +06 01 57.23   74083 .98447 141.2 16.8 548'  95
2024 12 16 15  08 18 01.049   +05 40 12.32   71777 .98444 137.5 16.8 573'  95
2024 12 16 16  08 35 29.025   +05 14 55.32   68852 .98440 133.5 16.8 611'  96
2024 12 16 17  08 54 39.491   +04 45 02.52   65273 .98435 129.1 16.8 665'  96